Location: Anglesey
(53.1800°N, 4.2200°W)
Time: 13:29:03
(UTC+01:00)

OTV 5 (USA 277) - Pass Details

Date: 15 October 2017
Orbit: 404 x 417 km, 43.0° (Epoch: 07 September)

Event Time Altitude Azimuth Distance (km) Brightness Sun altitude
Rises 20:41:46 0° 246° (WSW) 2,355 ? -21.8°
Reaches altitude 10° 20:44:35 10° 221° (SW) 1,491 ? -22.2°
Enters shadow 20:45:30 13° 206° (SSW) 1,322 ? -22.3°
